Simultaneous Nadir Overpasses (SNOs) Predictions

Prediction of SNOs between NOAA-19 and NPP Satellite Orbit:

Table of predicted SNOs for the next 14.0 days since TLE Epoch: 2/2/2018
Index Date (NOAA-19) Time (NOAA-19) Lat,Lon (NOAA-19) SZA (NOAA-19 ) Date (NPP) Time (NPP) Lat,Lon (NPP) SZA (NPP ) Distance(km) Time Diff (sec)
1 02/07/2018 11:20:36 -80.66, 142.63 80.82 02/07/2018 11:21:48 -80.67, 142.49 80.83 2.69 72
2 02/07/2018 12:11:32 80.66, -50.21 99.19 02/07/2018 12:12:33 80.66, -50.11 99.15 2.01 61
3 02/07/2018 13:02:37 -80.66, 117.23 80.85 02/07/2018 13:03:18 -80.67, 117.06 80.84 3.15 41
4 02/07/2018 13:53:33 80.66, -75.61 99.16 02/07/2018 13:54:03 80.67, -75.54 99.14 1.44 30
5 02/07/2018 14:44:38 -80.67, 91.83 80.88 02/07/2018 14:44:47 -80.65, 91.98 80.91 3.06 9
6 02/07/2018 15:35:34 80.66,-101.00 99.12 02/07/2018 15:35:33 80.67,-100.96 99.12 0.89 1
7 02/07/2018 16:26:39 -80.67, 66.44 80.91 02/07/2018 16:26:17 -80.66, 66.55 80.93 2.69 22
8 02/07/2018 17:17:34 80.67,-126.39 99.09 02/07/2018 17:17:02 80.67,-126.39 99.11 0.47 32
9 02/07/2018 18:08:39 -80.68, 41.04 80.95 02/07/2018 18:07:46 -80.66, 41.12 80.94 2.37 53




NCC Satellite Simultaneous Nadir Overpasses (SNOs) Prediction Service
